Starlink 35853

operational
NORAD ID: 67177 Int'l Des: 2025-303 Owner: SPXS Country: US Constellation: starlink
LEOCIRCULAR

关于 Starlink 35853

正在加载描述...

实时位置

正在加载3D地球...

即将过境

高度历史

Altitude vs Time

uPlot chart will show altitude changes over time

两行轨道根数

1 67177C 25303Q 25352.76854167 .00692400 00000+0 10175-2 0 3521
2 67177 43.0048 61.7772 0007406 285.8122 269.0104 16.03304347 18
Epoch: Dec 18, 2025 • Age: 42 hours

当前状态

高度 268.1 km
速度 7.75 km/s
星下点 38.50°N, 178.64°E
发射日期 Dec 17, 2025
运行时间 2 days
类型 internet

技术详情

分类 Payload
质量 575.00 kg
干质量 530.00 kg
总质量 575.00 kg
长度 0.30 m
直径 4.10 m
跨度 29.00 m
形状 Box + pan
制造商 SPXS
平台类型 Starlink V2MO
阶段状态 In Orbit
所有者/国家 SPXS/US

大型星座

Loading constellations...